COSMOS 1275 DEB, 12727

Orbit data source: Space-Track

COSMOS 1275 DEB, 12727 is space debris in LEO originally from a launch on Thu, 04 Jun 1981 UTC launched from the Plesetsk Missile And Space Complex (PKMTR). Debris objects in space refer to the collection of defunct objects orbiting the Earth. Examples of debris include non-operational satellites, rocket bodies, and fragments generated from explosions, collisions, or faulty payload assembly.

Loading next visibility...
Identifier
12727, 1981-053BU
Orbit
LEO
Country
Flag of CISCIS
Related business
Manufacturer
Unknown
Mission
Spacecraft
Bus & Motor
Unknown
Mass
Unknown
Launch date (UTC)
1981-06-04 (45 years ago)
Launch vehicle
Unknown
Launch site
Plesetsk Missile And Space Complex (PKMTR)
Object type
Payload
Rocket body
Debris
Shape & HBR
Unknown shape, 0.2 m
Radar Cross Section
Medium (>0.1 m² and <1 m²)

Expand to show TLE details & history
Last TLE update: 7 hours ago

TLE from 7 hours ago
0 COSMOS 1275 DEB
1 12727U 81053BU  26254.65454345  .00001148  00000-0  82758-3 0  9998
2 12727  83.2877 312.5324 0088150 213.6598 264.2397 13.94136086270320
Epoch: 2026-09-11T15:42Z
TLE epoch observation values (Epoch: 2026-09-11T15:42:32.554Z)
Latitude
62.43065°
Longitude
-106.73607°
Altitude
931.911 km
Speed
7.388 km/s
True Right ascension
07h 58m 17s
True Declination
62° 17' 34"
Sunlit
Object was in daylight at epoch
Visualization orbit readout
Latitude
Unknown
Longitude
Unknown
Altitude
Unknown
Speed
Unknown
Apparent Right ascension
Unknown
Apparent Declination
Unknown
Sunlit
N/A
Visualization observer readout
Local Sidereal Time
15:15:47
Azimuth
Unknown
Elevation
Unknown
Doppler factor
Unknown
Orbital elements
Apogee altitude
975.537 km
Perigee altitude
847.025 km
Semi-major axis
7,289.418 km
Eccentricity
0.00882
Inclination
83.2877°
RAAN
312.5324°
Arg. of periapsis
213.6598°
True anomaly
263.23584°
Mean anomaly
264.2397°
Eccentric anomaly
263.73765°
Mean motion
3.48742 °/min
Orbital period
103.23 mins
BSTAR
0.00082758
Loading maneuver chart data...
Computing Atmospheric mass density...
Loading historical data...
Loading historical data...
Loading historical data...
Loading historical data...
Loading historical data...
Loading historical data...
Loading historical data...

Documentation

Showing up to 5 results
|